Location: St. Louis
(38.6270°N, 90.1994°W)
Time: 19:34:31
(UTC-06:00)

Vanguard 3 - Pass Details

Date: 01 December 2021
Orbit: 508 x 3260 km, 33.3° (Epoch: 19 January)

Event Time Altitude Azimuth Distance (km) Brightness Sun altitude
Exits shadow 05:59:57 - 256° (WSW) 7,243 11.5 -11.6°
Rises 06:00:02 0° 256° (WSW) 7,225 11.5 -11.6°
Reaches altitude 10° 06:05:02 10° 255° (WSW) 6,157 11.1 -10.7°
Maximum altitude 06:23:58 71° 176° (S) 2,662 9.8 -7.2°
Drops below altitude 10° 06:35:55 10° 96° (E) 4,110 12.2 -5.1°
Sets 06:38:34 0° 94° (E) 4,799 12.7 -4.6°
